Location: ????
(32.1228°N, 34.8377°E)
Time: 00:32:44
(UTC+00:00)

Meteor 2-20 Rocket - Pass Details

Date: 21 September 2020
Orbit: 940 x 960 km, 82.5° (Epoch: 21 October)

Event Time Altitude Azimuth Distance (km) Brightness Sun altitude
Rises 02:41:55 0° 188° (S) 3,625 7.3 -10.6°
Reaches altitude 10° 02:44:25 10° 190° (S) 2,680 6.6 -10.1°
Maximum altitude 02:50:33 78° 276° (W) 980 4.4 -8.8°
Drops below altitude 10° 02:56:42 10° 3° (N) 2,683 6.9 -7.5°
Sets 02:59:12 0° 5° (N) 3,629 7.6 -7.0°
